Wind_Speed
18 17 17 16 15 15 14 12 11 10 9 7 6 4 3 1 1 1 2 3 3 3 3 4 5 6 6 6 6 6 7 7 8 8 8 7 7 7 8 8 8 9 9
18 17 17 16 15 15 14 13 12 10 9 8 7 5 3 2 2 2 3 4 4 4 5 5 6 6 6 7 7 8 8 9 9 9 9 9 10 10 9 10 11 11 11
17 16 16 15 15 14 14 14 13 11 10 8 7 6 5 3 2 2 3 4 4 5 5 6 6 6 7 7 8 9 10 11 11 11 11 11 11 12 12 13 13 13 13
15 16 15 15 14 14 14 13 13 12 10 9 8 7 5 5 3 3 3 3 4 5 5 6 7 7 8 8 9 10 11 11 12 13 13 13 13 14 14 15 15 15 16
14 15 14 14 14 14 14 13 13 12 11 10 9 8 7 6 5 5 4 5 5 6 7 8 9 9 10 10 11 12 12 12 12 13 14 14 15 15 16 16 16 17 18
14 14 13 13 14 14 14 14 14 13 12 12 11 9 7 7 6 6 6 6 6 7 8 9 9 10 11 11 11 12 13 13 14 15 15 15 16 16 17 17 17 18 19
13 13 13 13 14 14 14 14 14 14 13 12 12 11 9 8 7 7 7 7 7 8 9 10 10 11 12 12 12 12 13 14 15 16 15 16 16 16 17 18 18 19 19
11 11 12 12 13 13 14 15 14 14 13 13 12 12 11 9 8 7 7 8 8 9 9 11 12 12 13 14 14 14 14 15 16 16 17 17 17 18 18 18 18 19 20
10 11 11 11 12 13 14 14 15 14 14 13 13 12 12 10 9 8 8 8 8 9 10 11 12 12 13 14 14 15 16 16 16 17 18 19 19 19 19 19 19 19 19
10 11 11 11 12 13 13 14 14 14 14 14 13 13 13 12 10 10 9 9 10 10 11 12 12 13 13 14 15 15 16 16 17 18 18 19 19 19 20 20 21 20 21
11 11 11 11 12 13 13 14 15 14 14 14 14 14 14 13 11 11 11 11 11 11 11 12 12 13 13 14 15 15 15 16 16 17 18 19 20 20 21 21 21 21 21
12 12 12 12 13 13 13 14 15 14 14 15 15 15 15 14 14 12 12 12 12 12 12 13 13 13 14 14 15 16 17 17 18 18 19 20 21 21 21 22 22 22 22
12 12 12 12 13 13 13 14 15 14 15 15 16 15 15 15 15 15 14 13 13 14 14 14 14 14 15 15 16 17 17 17 18 19 20 20 21 22 22 22 23 23 24
11 12 13 13 14 14 15 16 15 15 16 16 16 16 17 17 17 17 16 15 15 15 15 15 15 15 16 16 17 18 18 19 19 20 20 20 20 21 22 23 24 25 25
13 13 14 15 15 15 16 16 16 16 17 17 17 18 18 19 19 19 18 18 17 17 17 17 17 17 17 17 19 19 19 19 20 20 21 21 21 21 22 23 25 26 27
14 15 15 16 16 16 16 17 17 18 18 18 19 20 20 21 20 21 20 19 19 18 18 18 18 18 18 19 20 20 20 20 20 21 22 22 22 22 22 23 25 26 27
15 16 17 17 17 17 17 18 19 19 20 20 21 21 22 22 22 23 21 20 20 19 19 19 19 19 19 20 20 20 20 20 20 20 21 22 22 23 23 24 25 26 28
18 19 19 19 19 19 19 19 20 20 21 21 21 22 23 23 23 23 22 21 21 21 20 21 21 21 21 21 21 21 22 21 21 22 23 23 24 24 25 26 27 27 28
21 20 21 21 20 20 20 20 20 21 22 21 22 23 24 24 24 24 23 22 22 21 21 22 22 22 23 23 23 23 23 23 23 23 23 24 25 26 26 27 28 29 29
22 22 22 22 21 21 21 21 21 22 22 23 24 24 25 25 25 25 25 24 23 22 22 23 23 23 23 24 24 24 24 25 25 24 25 25 26 26 27 28 28 29 29
24 24 24 23 22 22 22 22 22 23 24 25 25 25 26 26 26 26 25 24 24 23 23 23 23 24 24 25 25 25 26 26 26 26 26 27 27 28 28 28 29 29 30
25 25 24 24 24 24 23 23 24 25 26 26 26 26 26 26 26 26 25 25 25 24 24 24 24 24 25 25 26 26 26 26 26 27 27 27 27 28 28 29 29 30 30
25 26 26 27 27 26 25 25 25 26 27 27 27 26 26 26 26 26 25 25 24 24 24 25 25 25 25 26 26 27 27 27 26 26 27 27 27 28 29 29 30 30 31
27 28 28 28 27 26 25 26 26 27 27 26 26 26 26 27 26 25 25 25 25 25 25 26 26 26 26 26 26 27 27 26 26 26 26 27 28 29 30 30 30 31 32
28 28 28 28 29 27 26 26 27 28 27 27 26 27 28 28 27 26 25 25 26 26 26 26 26 27 26 26 27 27 28 27 27 27 27 28 29 30 30 31 32 32 33
29 29 28 29 29 29 27 26 27 28 28 28 28 28 29 28 28 27 27 26 27 27 28 28 27 27 28 28 28 28 28 28 28 28 29 30 30 30 31 31 32 33 33
Wind_Direction
20 23 25 29 32 32 35 37 36 35 33 34 35 32 25 14 331 270 247 243 245 252 248 241 232 234 236 239 242 243 245 247 250 250 251 250 250 253 254 258 261 262 264
18 18 20 24 27 28 31 35 33 32 31 31 29 25 23 10 328 293 263 252 252 251 248 248 243 243 245 246 248 247 249 256 256 256 258 254 253 257 260 260 262 264 267
17 18 22 24 25 27 28 27 25 25 25 23 22 17 9 347 305 302 281 258 255 255 250 253 253 251 251 255 257 257 258 259 258 259 260 258 259 261 261 263 263 265 269
13 14 21 24 25 24 23 22 20 20 20 15 12 10 2 351 334 318 298 281 269 264 264 268 265 261 261 262 262 263 264 263 261 260 262 264 263 265 268 268 266 267 270
9 12 17 19 21 21 21 20 17 14 13 8 3 1 357 345 332 318 304 290 280 279 276 273 272 269 269 269 266 266 269 267 266 264 263 265 266 268 269 271 271 270 271
8 11 14 15 18 20 19 17 13 11 8 5 3 356 348 339 332 321 307 292 285 281 280 278 276 274 275 275 270 270 272 269 267 266 265 265 267 270 270 271 272 271 272
9 11 13 15 17 16 14 12 9 7 5 2 0 357 346 336 329 323 312 298 291 287 282 278 275 274 276 277 277 275 273 271 269 267 267 267 268 269 271 274 273 272 274
4 8 11 11 10 8 8 8 8 6 5 2 359 355 351 345 339 328 321 309 299 295 289 284 280 275 274 275 276 275 275 273 271 268 268 268 268 269 270 274 275 275 277
357 2 5 6 4 2 2 1 2 2 2 359 356 352 347 344 343 335 323 317 311 304 297 290 287 284 280 278 278 277 276 275 272 270 269 269 269 269 271 273 276 277 277
349 353 357 358 356 355 355 356 357 358 357 355 352 348 346 343 342 338 328 323 320 314 305 297 293 289 285 282 281 278 276 274 273 272 271 270 270 271 272 274 275 275 277
338 341 346 350 350 350 350 350 350 350 351 351 350 347 344 342 340 337 330 323 318 315 312 306 299 296 291 287 285 282 279 277 276 275 274 273 273 273 274 273 275 276 277
326 333 337 341 343 345 345 345 344 345 346 346 346 348 347 344 339 336 331 324 320 316 312 309 303 299 297 293 290 289 286 285 283 281 280 276 274 273 275 275 276 276 278
316 325 330 335 337 338 338 339 338 341 345 344 343 343 343 341 338 335 332 324 318 314 312 309 304 301 298 296 293 291 288 287 287 285 283 281 278 276 277 278 279 279 279
310 318 323 327 329 330 331 333 336 337 338 338 338 337 336 335 333 332 329 324 320 315 312 311 307 304 301 299 296 293 290 287 287 287 287 283 282 281 279 278 279 279 279
304 310 315 320 322 322 324 327 327 329 330 331 332 332 330 331 329 328 323 320 317 314 312 310 308 305 302 301 299 298 294 291 289 289 289 287 285 284 283 282 281 280 280
295 299 306 312 315 316 318 320 323 323 325 326 326 327 328 328 325 322 320 317 314 311 310 309 307 307 304 302 299 298 296 291 289 289 289 289 288 287 286 283 283 283 284
286 291 297 304 307 310 311 314 317 320 322 323 324 324 325 324 324 323 318 314 312 311 309 309 307 307 307 305 301 299 299 295 291 291 291 292 292 291 290 289 287 287 286
283 287 291 299 302 303 306 309 312 316 318 318 321 322 323 321 321 321 318 312 309 308 308 307 305 305 306 306 304 303 302 300 294 292 292 292 292 291 290 290 289 289 288
280 284 287 291 295 298 302 306 309 311 314 315 318 320 320 320 319 319 317 314 308 306 306 305 304 303 304 305 304 302 303 301 298 295 293 292 292 291 290 291 291 291 291
279 281 284 288 291 296 299 302 306 310 313 314 314 315 316 317 317 317 316 314 309 305 305 306 304 304 304 304 304 302 302 301 299 297 296 296 295 293 292 292 292 293 293
278 279 283 289 293 294 295 299 303 306 308 309 310 312 313 313 313 313 312 312 310 307 305 306 305 303 303 302 302 302 301 299 298 297 297 296 296 296 295 295 294 295 295
276 277 283 289 291 292 293 296 298 302 304 306 307 309 311 312 312 311 309 308 307 306 306 306 306 305 305 303 302 302 301 300 299 298 298 298 299 299 298 296 295 295 295
275 278 282 286 289 291 291 293 295 298 300 302 305 307 310 311 312 310 309 307 307 306 305 305 305 305 305 304 302 302 301 301 300 299 299 299 299 299 298 296 296 296 296
275 278 282 284 287 288 290 293 294 296 298 300 302 305 308 310 310 309 308 306 306 305 304 304 304 304 305 305 304 303 302 301 300 299 299 300 300 300 300 299 298 298 298
273 278 282 286 289 290 289 291 294 295 295 298 300 303 306 308 308 307 307 306 304 304 304 303 303 303 304 304 304 303 301 300 300 300 300 301 300 300 300 300 299 299 299
274 277 281 284 287 290 292 292 295 295 297 299 300 301 303 304 305 304 304 304 304 303 303 302 302 302 302 301 301 301 300 299 299 299 300 300 300 300 300 300 300 301 301
Height
5908 5906 5903 5900 5898 5895 5894 5892 5891 5889 5888 5887 5886 5885 5885 5885 5885 5885 5885 5885 5885 5886 5886 5886 5887 5887 5888 5889 5889 5890 5890 5890 5891 5891 5891 5892 5892 5892 5893 5893 5893 5893 5893
5910 5907 5904 5901 5899 5897 5895 5893 5892 5890 5889 5888 5887 5886 5885 5885 5885 5885 5885 5885 5885 5885 5885 5885 5886 5886 5887 5887 5888 5888 5889 5889 5889 5890 5890 5890 5891 5891 5891 5891 5891 5891 5891
5911 5908 5905 5903 5900 5898 5896 5895 5893 5891 5890 5889 5887 5887 5886 5885 5884 5884 5884 5884 5884 5884 5884 5884 5885 5885 5885 5886 5886 5886 5887 5887 5887 5887 5888 5888 5888 5888 5889 5888 5888 5888 5888
5911 5909 5906 5904 5901 5899 5897 5895 5893 5892 5890 5889 5888 5887 5886 5885 5884 5884 5883 5883 5883 5883 5883 5883 5883 5883 5884 5884 5884 5884 5884 5884 5884 5884 5885 5885 5885 5885 5886 5886 5885 5885 5885
5912 5910 5907 5905 5902 5900 5898 5896 5894 5892 5891 5889 5888 5887 5886 5885 5884 5883 5882 5882 5882 5882 5882 5882 5882 5882 5882 5882 5881 5881 5881 5881 5881 5881 5881 5881 5881 5882 5882 5882 5882 5881 5881
5913 5910 5908 5905 5903 5901 5899 5897 5895 5893 5891 5889 5888 5886 5885 5884 5883 5882 5882 5881 5881 5880 5880 5880 5880 5880 5880 5879 5879 5878 5878 5878 5878 5878 5878 5878 5878 5878 5878 5878 5878 5877 5877
5913 5911 5908 5906 5904 5902 5900 5898 5896 5894 5892 5890 5888 5886 5885 5883 5882 5881 5880 5880 5879 5879 5878 5878 5878 5878 5877 5877 5876 5876 5875 5875 5875 5874 5874 5874 5874 5874 5874 5874 5873 5873 5872
5914 5911 5909 5907 5904 5903 5901 5898 5896 5894 5892 5890 5888 5886 5884 5882 5881 5880 5879 5878 5878 5877 5876 5876 5876 5875 5875 5874 5873 5873 5872 5872 5871 5871 5870 5870 5870 5870 5870 5869 5869 5868 5868
5913 5911 5909 5907 5905 5903 5901 5899 5897 5894 5892 5890 5887 5885 5883 5881 5879 5878 5877 5876 5876 5875 5874 5873 5873 5872 5871 5870 5870 5869 5868 5868 5867 5866 5866 5866 5866 5865 5865 5864 5864 5864 5863
5913 5911 5909 5907 5905 5903 5901 5898 5896 5894 5892 5889 5887 5884 5882 5880 5878 5877 5876 5874 5874 5873 5872 5871 5870 5869 5867 5867 5866 5865 5864 5863 5863 5862 5862 5861 5861 5860 5860 5859 5859 5858 5858
5912 5910 5908 5906 5904 5902 5900 5898 5896 5894 5891 5889 5886 5884 5881 5879 5877 5876 5874 5873 5872 5870 5869 5868 5867 5865 5864 5863 5862 5861 5860 5859 5858 5858 5857 5856 5856 5855 5855 5854 5853 5852 5852
5911 5909 5907 5905 5903 5901 5899 5897 5895 5893 5890 5888 5885 5883 5881 5878 5876 5874 5872 5871 5870 5868 5867 5865 5864 5862 5861 5859 5858 5857 5856 5855 5854 5853 5852 5851 5851 5850 5849 5848 5847 5847 5846
5909 5907 5905 5903 5901 5899 5898 5896 5893 5891 5889 5887 5884 5882 5880 5877 5875 5873 5871 5869 5867 5866 5864 5862 5861 5859 5858 5856 5855 5853 5851 5850 5849 5848 5847 5846 5845 5844 5843 5842 5842 5841 5840
5906 5905 5903 5902 5900 5898 5896 5894 5891 5890 5888 5885 5883 5880 5878 5876 5873 5871 5869 5867 5865 5863 5861 5859 5857 5855 5854 5852 5850 5849 5847 5846 5845 5843 5842 5841 5839 5838 5837 5836 5835 5834 5833
5904 5903 5901 5899 5897 5896 5894 5892 5890 5888 5885 5883 5880 5878 5876 5873 5871 5868 5866 5864 5862 5860 5858 5856 5853 5852 5850 5848 5846 5845 5843 5841 5839 5838 5837 5835 5834 5832 5831 5830 5829 5827 5826
5901 5900 5898 5896 5894 5892 5891 5889 5887 5885 5883 5880 5878 5875 5873 5870 5867 5865 5862 5860 5858 5856 5854 5852 5850 5847 5845 5844 5842 5840 5838 5836 5834 5833 5831 5830 5828 5826 5824 5823 5822 5820 5819
5897 5896 5895 5893 5891 5889 5887 5885 5883 5881 5879 5877 5874 5871 5869 5866 5864 5861 5858 5856 5854 5852 5850 5848 5845 5843 5841 5839 5837 5835 5833 5831 5829 5828 5826 5824 5822 5820 5818 5817 5815 5814 5812
5893 5892 5890 5889 5887 5885 5883 5881 5879 5877 5875 5873 5870 5868 5865 5862 5859 5856 5854 5851 5849 5847 5845 5843 5841 5839 5837 5834 5832 5830 5828 5826 5824 5822 5820 5818 5816 5814 5812 5810 5808 5806 5804
5888 5887 5886 5884 5883 5881 5879 5877 5875 5873 5871 5868 5866 5863 5860 5857 5855 5852 5849 5846 5844 5842 5840 5838 5836 5834 5832 5829 5827 5825 5823 5820 5818 5816 5814 5812 5810 5808 5805 5803 5801 5799 5797
5882 5881 5880 5879 5877 5876 5874 5872 5870 5868 5866 5864 5861 5859 5856 5853 5850 5847 5843 5841 5838 5836 5834 5832 5830 5828 5826 5824 5821 5819 5817 5814 5812 5810 5808 5806 5803 5801 5798 5796 5794 5791 5789
5876 5875 5874 5873 5872 5870 5869 5867 5865 5864 5862 5859 5856 5854 5851 5847 5844 5841 5838 5836 5833 5831 5829 5827 5824 5822 5820 5817 5815 5813 5810 5808 5805 5803 5801 5799 5796 5794 5791 5788 5786 5784 5781
5869 5869 5868 5867 5866 5864 5863 5861 5860 5858 5856 5854 5851 5848 5845 5841 5838 5835 5832 5830 5827 5825 5823 5821 5818 5816 5813 5811 5808 5806 5804 5801 5799 5796 5794 5791 5789 5786 5783 5781 5778 5776 5773
5863 5862 5862 5861 5859 5858 5856 5855 5854 5852 5850 5847 5845 5842 5839 5836 5832 5829 5827 5824 5821 5819 5817 5815 5812 5810 5807 5804 5802 5799 5797 5794 5792 5789 5786 5784 5781 5778 5776 5773 5770 5767 5765
5856 5856 5855 5853 5852 5851 5850 5848 5847 5845 5843 5841 5838 5836 5833 5830 5826 5823 5821 5818 5815 5813 5811 5808 5806 5803 5801 5798 5795 5792 5790 5787 5784 5782 5779 5776 5773 5771 5768 5765 5762 5759 5756
5849 5848 5848 5847 5846 5844 5843 5842 5840 5838 5836 5834 5832 5829 5827 5824 5820 5817 5815 5812 5809 5807 5804 5801 5799 5796 5794 5791 5788 5785 5783 5780 5777 5774 5772 5769 5766 5763 5760 5756 5753 5750 5747
5841 5841 5840 5840 5839 5837 5836 5835 5833 5831 5829 5827 5824 5822 5820 5817 5814 5811 5808 5805 5803 5800 5797 5795 5792 5789 5787 5784 5781 5778 5775 5773 5770 5767 5764 5761 5758 5755 5751 5748 5745 5741 5738